Regional Weather Roundup
Issued by NWS

Home | Current Version | Previous Version | Graphics & Text | Print | Product List | Glossary On
Versions: 1 2 3 4 5 6 7 8 9 10 11 12 13 14 15 16 17 18 19 20 21 22 23 24 25 26 27 28 29 30 31 32 33 34 35 36 37 38 39 40 41 42 43 44 45 46 47 48 49 50
000
ASUS43 KLSX 021757
RWRMO

WEATHER SUMMARY FOR MISSOURI
NATIONAL WEATHER SERVICE SPRINGFIELD MO
100 PM CDT WED SEP 02 2015

NOTE: "FAIR" INDICATES FEW OR NO CLOUDS BELOW 12,000 FEET WITH NO
       SIGNIFICANT WEATHER AND/OR OBSTRUCTIONS TO VISIBILITY.
       CURRENT SKY AND/OR WEATHER CONDITIONS ARE NOT AVAILABLE FOR
       CHILLICOTHE AND FARMINGTON.

MOZ001>031-035>038-043-044-053-054-021900-
...NORTHERN AND WESTERN MISSOURI...

CITY           SKY/WX    TMP DP  RH WIND       PRES   REMARKS
KANSAS CTY INT FAIR      81  72  74 S13       30.02F
6HR MIN TEMP:  71; 6HR MAX TEMP:  81; 6HR PCP:  0.17;

LEE`S SUMMIT   FAIR      85  70  60 S9G16     30.03F
6HR MIN TEMP:  71; 6HR MAX TEMP:  85;

ST JOSEPH      FAIR      80  71  74 S12       29.99F
6HR MIN TEMP:  71; 6HR MAX TEMP:  80; 6HR PCP:  0.24;


$$
MOZ066>068-077>081-088>096-101>105-021900-
...SOUTHWEST MISSOURI...

CITY           SKY/WX    TMP DP  RH WIND       PRES   REMARKS
SPRINGFIELD    FAIR      86  67  52 VRB3      30.10F
6HR MIN TEMP:  70; 6HR MAX TEMP:  86;

JOPLIN         FAIR      86  69  56 S9        30.08F HX  90
6HR MIN TEMP:  71; 6HR MAX TEMP:  86;


$$
MOZ032>034-039>042-045>050-055>058-069>072-021900-
...CENTRAL MISSOURI...

CITY           SKY/WX    TMP DP  RH WIND       PRES   REMARKS
COLUMBIA       NOT AVBL
JEFFERSON CITY FAIR      87  66  49 VRB3      30.06F
6HR MIN TEMP:  69; 6HR MAX TEMP:  87;

ROLLA          FAIR      88  65  46 S8        30.09F HX  90
6HR MIN TEMP:  70; 6HR MAX TEMP:  89;

SEDALIA        FAIR      84  69  60 VRB6      30.09F
6HR MIN TEMP:  70; 6HR MAX TEMP:  85;


$$
MOZ051-052-059>065-021900-
...EAST CENTRAL MISSOURI...

CITY           SKY/WX    TMP DP  RH WIND       PRES   REMARKS
ST LOUIS INTL  PTSUNNY   91  66  43 W10       30.08F HX  93
6HR MIN TEMP:  76; 6HR MAX TEMP:  92;


$$
MOZ072>076-082>087-097>100-106>115-021900-
...SOUTH CENTRAL AND SOUTHEAST MISSOURI...

CITY           SKY/WX    TMP DP  RH WIND       PRES   REMARKS
CAPE GIRARDEAU FAIR      89  68  49 CALM      30.08F HX  93
6HR MIN TEMP:  66; 6HR MAX TEMP:  89;

POPLAR BLUFF   FAIR      87  70  56 VRB5      30.08F HX  92
6HR MIN TEMP:  66; 6HR MAX TEMP:  87;

WEST PLAINS    FAIR      86  63  45 VRB5      30.13F
6HR MIN TEMP:  66; 6HR MAX TEMP:  86;


$$



USA.gov is the U.S. government's official web portal to all federal, state and local government web resources and services.